Change the Weather History Date:

Saturday, March 9, 2013

  Actual Average Record
Temperature  
Mean Temperature 34 °F -  
Max Temperature 37 °F 31 °F 53 °F (2015)
Min Temperature 32 °F 17 °F 1 °F (2003)
Degree Days  
Heating Degree Days 30    
Moisture  
Dew Point 33 °F    
Average Humidity 94    
Maximum Humidity 100    
Minimum Humidity 87    
Precipitation  
Precipitation 1.19 in - - ()
Sea Level Pressure  
Sea Level Pressure 29.76 in    
Wind  
Wind Speed 12 mph (SSE)    
Max Wind Speed 17 mph    
Max Gust Speed 25 mph    
Visibility 2 miles    
Events Fog , Rain , Snow    
Averages and records for this station are not official NWS values.
T = Trace of Precipitation, MM = Missing Value Source: NWS Daily Summary

Daily Weather History Graph

Daily Weather History Graph

Search for Another Location

Airport or City:

Trip Planner

Search our weather history database for the weather conditions in past years. The results will help you decide how hot, cold, wet, or windy it might be!

Date:

Astronomy

Mar. 09, 2013 Rise Set
Actual Time 6:42 AM CST 6:19 PM CST
Civil Twilight 6:13 AM CST 6:47 PM CST
Nautical Twilight 5:40 AM CST 7:21 PM CST
Astronomical Twilight 5:07 AM CST 7:54 PM CST
Moon 5:10 AM CST (3/9) 4:19 PM CST (3/9)
Length of Visible Light 12h 34m
Length of Day
11h 36m
Waning Crescent, 5% of the Moon is Illuminated
Mar 9
Waning Crescent
Mar 11
New
Mar 19
First Quarter
Mar 27
Full
Apr 2
Last Quarter

Hourly Weather History & Observations

Time (CST) Temp. Windchill Dew Point Humidity Pressure Visibility Wind Dir Wind Speed Gust Speed Precip Events Conditions
12:12 AM 33.8 °F 23.9 °F 32.0 °F 93% 29.98 in 2.0 mi SSE 15.0 mph - 0.04 in   Overcast
12:33 AM 35.6 °F 25.9 °F 32.0 °F 87% 29.96 in 1.8 mi SSE 16.1 mph - 0.14 in Snow Snow
12:53 AM 33.8 °F 23.5 °F 32.0 °F 93% 29.95 in 3.0 mi SE 16.1 mph 21.9 mph 0.21 in   Overcast
1:13 AM 33.8 °F 23.5 °F 32.0 °F 93% 29.95 in 3.0 mi SE 16.1 mph 20.7 mph N/A   Overcast
1:32 AM 33.8 °F 24.8 °F 32.0 °F 93% 29.94 in 2.5 mi SE 12.7 mph 17.3 mph 0.01 in   Overcast
1:53 AM 33.8 °F 24.3 °F 32.0 °F 93% 29.93 in 2.5 mi SE 13.8 mph 18.4 mph 0.01 in   Overcast
2:12 AM 33.8 °F 24.3 °F 32.0 °F 93% 29.91 in 3.0 mi SSE 13.8 mph - N/A   Overcast
2:33 AM 33.8 °F 24.8 °F 32.0 °F 93% 29.90 in 2.5 mi SSE 12.7 mph 18.4 mph 0.02 in   Overcast
2:53 AM 33.8 °F 24.3 °F 32.0 °F 93% 29.88 in 3.0 mi SSE 13.8 mph - 0.03 in   Overcast
3:12 AM 33.8 °F 24.8 °F 32.0 °F 93% 29.87 in 3.0 mi SSE 12.7 mph - N/A   Overcast
3:33 AM 33.8 °F 25.8 °F 32.0 °F 93% 29.86 in 3.0 mi SSE 10.4 mph - N/A   Overcast
3:53 AM 33.8 °F 25.3 °F 32.0 °F 93% 29.86 in 3.0 mi SSE 11.5 mph - 0.01 in   Overcast
4:12 AM 33.8 °F 25.3 °F 32.0 °F 93% 29.86 in 3.0 mi SSE 11.5 mph - 0.01 in   Overcast
4:33 AM 33.8 °F 25.3 °F 32.0 °F 93% 29.85 in 3.0 mi SSE 11.5 mph - 0.03 in   Overcast
4:53 AM 35.6 °F 25.9 °F 33.8 °F 93% 29.84 in 4.0 mi SSE 16.1 mph - 0.03 in   Drizzle
5:12 AM 35.6 °F 26.2 °F 33.8 °F 93% 29.83 in 4.0 mi SSE 15.0 mph 20.7 mph 0.01 in Rain Rain
5:33 AM 35.6 °F 26.6 °F 33.8 °F 93% 29.83 in 4.0 mi SSE 13.8 mph - 0.01 in Rain Rain
5:53 AM 35.6 °F 26.2 °F 33.8 °F 93% 29.82 in 3.0 mi SSE 15.0 mph 19.6 mph 0.02 in   Drizzle
6:12 AM 35.6 °F 26.6 °F 33.8 °F 93% 29.81 in 2.5 mi SSE 13.8 mph - 0.01 in Rain Light Rain
6:33 AM 35.6 °F 25.5 °F 33.8 °F 93% 29.80 in 1.8 mi SSE 17.3 mph 20.7 mph 0.05 in Rain Rain
6:52 AM 35.6 °F 26.2 °F 33.8 °F 93% 29.80 in 2.5 mi SSE 15.0 mph - 0.06 in   Overcast
7:12 AM 35.6 °F 26.2 °F 33.8 °F 93% 29.80 in 1.8 mi SSE 15.0 mph - N/A   Overcast
7:33 AM 35.6 °F 28.6 °F 33.8 °F 93% 29.79 in 1.5 mi SE 9.2 mph - N/A   Overcast
7:52 AM 33.8 °F 24.8 °F 32.0 °F 93% 29.77 in 0.2 mi SE 12.7 mph - N/A Fog Fog
8:12 AM 33.8 °F 24.3 °F 32.0 °F 93% 29.77 in 0.2 mi SSE 13.8 mph 20.7 mph N/A Fog Fog
8:33 AM 33.8 °F 25.3 °F 32.0 °F 93% 29.78 in 0.2 mi SSE 11.5 mph - N/A Fog Fog
8:52 AM 33.8 °F 25.8 °F 32.0 °F 93% 29.76 in 0.5 mi SE 10.4 mph - 0.03 in Rain Rain
9:12 AM 33.8 °F 24.3 °F 32.0 °F 93% 29.76 in 1.0 mi SSE 13.8 mph - 0.06 in Rain Rain
9:33 AM 35.6 °F 27.1 °F 33.8 °F 93% 29.75 in 2.5 mi SSE 12.7 mph 17.3 mph 0.11 in Rain Light Rain
9:52 AM 35.6 °F 28.0 °F 33.8 °F 93% 29.73 in 1.5 mi SE 10.4 mph - 0.13 in Rain Rain
10:12 AM 35.6 °F 27.5 °F 33.8 °F 93% 29.73 in 2.5 mi SE 11.5 mph - 0.01 in Rain Light Rain
10:33 AM 35.6 °F 27.5 °F 33.8 °F 93% 29.72 in 1.8 mi SE 11.5 mph - 0.03 in Rain Light Rain
10:52 AM 35.6 °F 28.0 °F 33.8 °F 93% 29.71 in 1.2 mi SE 10.4 mph - 0.08 in Rain Heavy Rain
11:12 AM 35.6 °F 28.6 °F 33.8 °F 93% 29.71 in 1.2 mi SSE 9.2 mph - 0.04 in Rain Rain
11:33 AM 35.6 °F 29.9 °F 33.8 °F 93% 29.71 in 1.8 mi SSE 6.9 mph - 0.09 in Rain Rain
11:52 AM 35.6 °F 27.5 °F 33.8 °F 93% 29.70 in 1.8 mi SSE 11.5 mph 17.3 mph 0.13 in Rain Rain
12:13 PM 35.6 °F 28.6 °F 33.8 °F 93% 29.68 in 1.2 mi SSE 9.2 mph - 0.08 in Rain Heavy Rain
12:32 PM 35.6 °F 27.1 °F 33.8 °F 93% 29.67 in 2.0 mi SSE 12.7 mph - 0.13 in Rain Light Rain
12:53 PM 37.4 °F 31.4 °F 35.6 °F 93% 29.66 in 2.5 mi South 8.1 mph - 0.14 in   Light Drizzle
1:12 PM 37.4 °F 29.8 °F 35.6 °F 93% 29.66 in 4.0 mi SSE 11.5 mph - N/A   Light Drizzle
1:32 PM 37.4 °F 30.3 °F 35.6 °F 93% 29.66 in 1.2 mi South 10.4 mph - 0.03 in Rain Rain
1:53 PM 37.4 °F 32.8 °F 35.6 °F 93% 29.66 in 3.0 mi South 5.8 mph - 0.04 in   Overcast
2:12 PM 35.6 °F 32.8 °F 33.8 °F 93% 29.65 in 1.0 mi SSW 3.5 mph - N/A   Overcast
2:32 PM 35.6 °F - 33.8 °F 93% 29.65 in 0.2 mi Calm Calm - N/A Fog Fog
2:53 PM 35.6 °F - 35.6 °F 100% 29.65 in 0.2 mi Calm Calm - N/A Fog Fog
3:12 PM 35.6 °F 30.7 °F 33.8 °F 93% 29.64 in 0.2 mi SE 5.8 mph - N/A Fog Fog
3:32 PM 35.6 °F 30.7 °F 33.8 °F 93% 29.64 in 0.2 mi SE 5.8 mph - N/A Fog Fog
3:53 PM 35.6 °F 29.9 °F 35.6 °F 100% 29.64 in 0.2 mi SE 6.9 mph - N/A Fog Fog
4:12 PM 37.4 °F 32.8 °F 35.6 °F 93% 29.64 in 0.5 mi SSE 5.8 mph - N/A Fog Fog
4:32 PM 37.4 °F 32.8 °F 35.6 °F 93% 29.64 in 0.5 mi SSE 5.8 mph - N/A Fog Fog
4:53 PM 37.4 °F 32.8 °F 35.6 °F 93% 29.65 in 0.2 mi SSE 5.8 mph - N/A Fog Fog
5:11 PM 37.4 °F - 35.6 °F 93% 29.65 in 0.2 mi Calm Calm - N/A Fog Fog
5:33 PM 35.6 °F 30.7 °F 33.8 °F 93% 29.65 in 0.2 mi NNW 5.8 mph - N/A Fog Fog
5:53 PM 35.6 °F 29.9 °F 33.8 °F 93% 29.66 in 0.2 mi NNW 6.9 mph - N/A Fog Fog
6:12 PM 35.6 °F 29.2 °F 33.8 °F 93% 29.68 in 1.2 mi NNW 8.1 mph - N/A   Overcast
6:33 PM 35.6 °F 30.7 °F 33.8 °F 93% 29.69 in 2.5 mi North 5.8 mph - N/A   Overcast
6:53 PM 33.8 °F 29.6 °F 33.8 °F 100% 29.71 in 2.5 mi North 4.6 mph - N/A   Overcast
7:12 PM 33.8 °F 26.4 °F 32.0 °F 93% 29.71 in 2.0 mi NNW 9.2 mph - N/A   Light Drizzle
7:33 PM 33.8 °F 24.3 °F 32.0 °F 93% 29.71 in 1.5 mi NNW 13.8 mph 19.6 mph 0.01 in Rain Light Rain
7:52 PM 33.8 °F 25.3 °F 32.0 °F 93% 29.72 in 2.0 mi NNW 11.5 mph 19.6 mph 0.02 in   Overcast
8:12 PM 33.8 °F 24.8 °F 32.0 °F 93% 29.75 in 2.0 mi NW 12.7 mph 20.7 mph 0.06 in Snow Snow
8:33 PM 33.8 °F 26.4 °F 32.0 °F 93% 29.77 in 2.5 mi NW 9.2 mph 20.7 mph 0.15 in Snow Light Snow
8:52 PM 33.8 °F 24.8 °F 32.0 °F 93% 29.73 in 2.5 mi NNW 12.7 mph 21.9 mph 0.19 in Snow Light Snow
9:12 PM 32.0 °F 22.5 °F 32.0 °F 100% 29.74 in 3.0 mi NNW 12.7 mph 20.7 mph 0.03 in Snow Snow
9:33 PM 32.0 °F 22.5 °F 32.0 °F 100% 29.75 in 4.0 mi NNW 12.7 mph - 0.06 in   Overcast
9:52 PM 32.0 °F 22.1 °F 32.0 °F 100% 29.76 in 5.0 mi NNW 13.8 mph 25.3 mph 0.06 in   Overcast
10:12 PM 32.0 °F 22.5 °F 32.0 °F 100% 29.77 in 7.0 mi NNW 12.7 mph 19.6 mph N/A   Overcast
10:33 PM 32.0 °F 21.6 °F 32.0 °F 100% 29.76 in 7.0 mi North 15.0 mph 21.9 mph N/A   Overcast
10:52 PM 32.0 °F 21.6 °F 32.0 °F 100% 29.77 in 7.0 mi NNW 15.0 mph 20.7 mph N/A   Overcast
11:12 PM 32.0 °F 22.1 °F 32.0 °F 100% 29.79 in 4.0 mi NNW 13.8 mph 20.7 mph N/A Snow Light Snow
11:33 PM 32.0 °F 21.6 °F 32.0 °F 100% 29.76 in 1.0 mi NNW 15.0 mph 20.7 mph N/A Snow Light Snow
11:52 PM 32.0 °F 21.2 °F 32.0 °F 100% 29.76 in 1.2 mi North 16.1 mph - N/A Snow Light Snow